CDT,Max TemperatureF,Mean TemperatureF,Min TemperatureF,Max Dew PointF,MeanDew PointF,Min DewpointF,Max Humidity, Mean Humidity, Min Humidity, Max Sea Level PressureIn, Mean Sea Level PressureIn, Min Sea Level PressureIn, Max VisibilityMiles, Mean VisibilityMiles, Min VisibilityMiles, Max Wind SpeedMPH, Mean Wind SpeedMPH, Max Gust SpeedMPH,PrecipitationIn, CloudCover, Events, WindDirDegrees
2013-6-1,64,58,53,63,54,48,100,84,63,29.97,29.78,29.67,10,9,1,23,13,29,0.01,5,,277
2013-6-2,62,56,51,50,47,43,94,72,52,30.10,30.05,29.97,10,10,2,23,12,26,0.00,6,,347
2013-6-3,69,58,46,54,49,45,94,71,49,30.09,30.01,29.92,10,10,4,20,7,25,0.00,0,,149
2013-6-4,69,62,55,64,57,52,100,86,77,30.02,29.97,29.94,10,10,5,28,13,34,0.07,7,Rain,135
2013-6-5,68,64,60,63,59,54,100,86,64,30.02,29.98,29.95,10,8,1,16,7,21,0.05,6,Rain,343
2013-6-6,69,60,50,55,52,48,100,74,56,30.00,29.96,29.94,10,10,7,15,6,21,0.00,3,Rain,343
2013-6-7,68,59,50,54,50,46,100,72,49,30.04,29.99,29.94,10,9,3,14,7,18,0.00,3,,354
2013-6-8,71,61,51,61,54,48,100,74,53,29.95,29.87,29.75,10,10,3,22,9,33,0.49,4,Rain,150
2013-6-9,68,64,60,63,60,59,100,94,78,29.79,29.77,29.75,10,8,1,20,15,25,0.18,7,Rain,237
2013-6-10,77,68,60,66,62,59,100,86,65,29.93,29.86,29.79,10,9,3,13,8,12,0.00,5,,309
2013-6-11,84,74,64,72,67,63,94,79,55,29.89,29.82,29.75,10,10,9,16,7,16,0.00,0,,141
2013-6-12,87,76,64,72,67,55,94,75,55,29.96,29.80,29.73,10,10,7,26,11,36,0.00,2,Rain,254
2013-6-13,78,68,57,59,56,54,94,65,42,30.09,30.04,29.96,10,10,7,18,10,22,0.00,0,,337
2013-6-14,71,66,62,66,62,57,100,86,73,30.08,30.00,29.86,10,9,0,36,9,46,1.47,3,Rain,132
2013-6-15,80,72,64,73,66,63,100,88,69,30.01,29.94,29.90,10,10,6,28,11,36,0.09,4,Rain,180
2013-6-16,82,72,62,68,64,61,100,86,48,30.00,29.98,29.95,10,6,0,10,6,13,0.00,4,Fog,316
2013-6-17,86,75,64,70,62,55,100,67,35,30.02,29.98,29.94,10,9,2,15,5,18,0.00,0,,327
2013-6-18,80,71,62,64,59,54,88,66,39,30.06,30.02,29.99,10,10,7,13,6,16,0.00,2,Rain,311
2013-6-19,82,72,62,66,63,59,94,74,51,30.07,30.03,29.98,10,10,7,18,7,28,0.00,1,,149
2013-6-20,86,76,66,70,66,63,94,72,55,30.04,29.98,29.92,10,10,9,28,12,36,0.00,0,,154
2013-6-21,87,79,71,75,72,68,94,76,62,29.99,29.93,29.88,10,10,8,24,15,31,0.00,0,,174
2013-6-22,89,80,71,73,70,68,88,77,55,30.01,29.94,29.87,10,9,5,21,11,30,0.00,1,,187
2013-6-23,78,72,66,72,68,61,94,82,69,30.00,29.90,29.81,10,9,2,26,15,34,0.20,4,Rain,162
2013-6-24,78,72,66,72,69,59,100,86,54,30.01,29.90,29.75,10,9,4,34,9,52,0.21,3,Rain,161
2013-6-25,86,78,69,75,71,66,94,80,55,29.85,29.79,29.74,10,10,8,18,9,29,0.00,2,,167
2013-6-26,87,78,69,77,69,61,100,72,40,29.90,29.80,29.68,10,10,5,20,10,28,0.00,0,,282
2013-6-27,82,74,66,70,67,63,88,77,58,30.02,29.94,29.90,10,10,9,15,7,24,0.00,1,Rain,299
2013-6-28,84,75,66,64,58,54,88,59,37,29.96,29.91,29.85,10,10,10,28,13,39,0.00,1,,317
2013-6-29,71,66,60,61,56,54,82,73,60,29.93,29.86,29.84,10,10,10,28,12,37,0.00,1,,323
2013-6-30,77,68,59,59,53,46,88,67,38,30.10,30.02,29.94,10,10,7,18,10,22,0.00,1,,11